STARLINK-1477, 45754

Orbit data source: Space-Track

STARLINK-1477, 45754 is a payload satellite owned by SpaceX/Seattle (US) in LEO that was launched on Sat, 13 Jun 2020 UTC via an FALCON 9 launch vehicle from the Air Force Eastern Test Range (AFETR). Payload-class satellites include a variety of spacecraft equipped with specific instruments for various scientific and technological missions. These include communications satellites like Starlink; space stations such as the ISS; scientific satellites like the Hubble; Earth observation satellites from companies like Planet Labs, Umbra, and HawkEye 360; GPS; miniature CubeSats for education and research; and military/defense satellites.

Loading next visibility...
Identifier
45754, 2020-038AA
Orbit
LEO
Country
Flag of USUS
Related business
Manufacturer
SpaceX/Seattle
Mission
Operational Commercial Communications
Bus & Motor
STARLINK, Unknown motor
Mass
260 kg wet, ~248 kg dry
Launch date (UTC)
2020-06-13 (5 years ago)
Launch vehicle
FALCON 9
Launch site
Air Force Eastern Test Range (AFETR)
Object type
Payload
Rocket body
Debris
Shape & HBR
Box + 1 Pan, 10.1 m
Radar Cross Section
13.562 m², Large (>1 m²)

Expand to show TLE details & history
Last TLE update: 16 hours ago

TLE from 16 hours ago
0 STARLINK-1477
1 45754U 20038AA  25288.34718093  .00002275  00000-0  17159-3 0  9990
2 45754  53.0521 149.0850 0001491  87.0592 273.0568 15.06391668294579
Epoch: 2025-10-15T08:19Z
TLE epoch observation values (Epoch: 2025-10-15T08:19:56.432Z)
Latitude
0.00002°
Longitude
-0.02268°
Altitude
548.061 km
Speed
7.589 km/s
True Right ascension
09h 56m 20s
True Declination
0° 00' 00"
Sunlit
Object was in daylight at epoch
Visualization orbit readout
Latitude
Unknown
Longitude
Unknown
Altitude
Unknown
Speed
Unknown
Apparent Right ascension
Unknown
Apparent Declination
Unknown
Sunlit
N/A
Visualization observer readout
Local Sidereal Time
18:44:42
Azimuth
Unknown
Elevation
Unknown
Doppler factor
Unknown
Orbital elements
Apogee altitude
548.541 km
Perigee altitude
546.476 km
Semi-major axis
6,925.645 km
Eccentricity
0.00015
Inclination
53.0521°
RAAN
149.085°
Arg. of periapsis
87.0592°
True anomaly
273.03974°
Mean anomaly
273.0568°
Eccentric anomaly
273.04827°
Mean motion
3.76576 °/min
Orbital period
95.6 mins
BSTAR
0.00017159
Loading maneuver chart data...
Computing Atmospheric mass density...

Documentation

Showing up to 5 results
|